Temperature
19 19 19 19 19 19 19 19 18 18 18 18 18 18 18 18 18 18 18 18 18 18 18 18 18 18 18 18 18 18 18 18 18 18 18 18 18 18 18 18 18 18 18
20 20 19 19 19 19 19 19 18 18 18 18 18 18 18 18 18 18 18 18 18 18 18 18 18 18 18 18 18 18 18 18 18 18 18 18 18 18 18 17 17 18 18
20 19 19 19 19 19 19 19 18 18 18 18 18 18 18 18 18 18 18 18 18 18 18 18 18 18 18 18 18 18 18 18 18 18 18 18 18 18 18 17 17 18 17
20 19 19 19 19 19 19 19 18 18 18 18 18 18 18 18 18 18 18 18 18 18 18 18 18 18 18 18 18 18 18 18 18 18 17 17 18 18 18 18 18 18 17
20 20 20 19 19 19 19 19 19 18 18 18 18 18 18 18 18 18 18 18 18 18 18 18 18 18 18 18 18 18 18 18 18 18 17 18 18 18 18 18 18 18 17
20 20 20 20 19 19 19 19 19 18 18 18 18 18 18 18 18 18 18 18 18 18 18 18 18 18 18 18 18 18 18 18 18 18 17 18 18 18 18 18 18 18 17
20 20 20 20 19 19 19 19 19 18 19 18 18 18 18 18 18 18 18 18 18 18 18 18 18 18 18 18 18 18 18 18 18 18 18 18 18 18 18 18 18 17 17
20 20 20 20 19 19 19 19 19 19 19 19 19 18 18 19 18 18 18 18 18 18 18 18 18 18 18 18 19 19 19 18 18 18 18 18 18 18 18 18 17 17 17
21 20 20 20 20 19 19 19 19 19 19 19 19 19 19 19 18 18 18 18 18 18 18 18 18 19 19 19 19 19 19 19 18 18 18 18 18 18 18 18 17 17 17
21 20 20 19 19 19 19 19 19 19 19 19 19 19 19 19 18 18 18 19 19 19 18 18 18 19 19 19 19 19 19 19 19 18 18 19 18 18 18 18 17 17 17
21 21 21 20 19 19 19 19 19 19 19 19 19 19 18 18 18 18 18 19 19 19 19 18 18 19 19 19 19 19 19 19 19 19 19 19 18 18 18 18 18 17 17
21 21 21 21 20 20 19 19 19 19 19 19 19 19 18 18 18 18 19 19 19 19 19 18 19 19 19 19 19 19 19 19 19 19 19 19 18 18 18 18 18 17 17
21 21 21 20 20 20 20 19 19 19 19 19 19 19 19 19 19 19 19 19 19 18 18 18 18 19 19 19 19 19 19 19 19 19 19 18 18 18 18 18 18 17 17
21 21 21 20 20 20 20 20 19 19 19 19 19 19 19 19 19 19 19 19 19 19 18 18 18 19 19 19 19 19 19 19 19 19 19 19 18 18 18 18 18 17 17
21 21 20 20 20 20 20 20 20 19 19 19 19 19 19 19 19 19 19 19 19 19 19 19 19 19 19 19 19 19 19 19 19 19 19 18 18 18 18 18 18 17 17
21 21 20 20 19 19 20 19 19 19 19 19 19 19 19 19 19 19 19 19 19 19 19 19 19 19 19 19 19 19 19 19 19 19 19 18 18 18 18 18 18 17 17
21 21 20 20 20 20 19 20 19 19 19 19 19 19 19 19 19 19 19 19 19 19 19 19 19 19 19 19 19 19 19 19 19 18 18 18 18 18 18 18 17 17 17
21 21 21 20 20 20 20 19 19 19 19 19 19 19 19 19 19 19 19 19 19 19 19 19 19 19 19 19 19 19 19 19 18 18 18 18 18 18 18 18 17 17 17
22 21 21 20 20 20 19 19 19 19 19 19 19 19 19 19 19 19 19 19 19 19 19 19 19 19 19 19 19 19 19 19 18 18 18 18 18 18 17 17 17 17 17
22 21 21 20 20 20 19 19 19 19 19 19 19 19 19 19 19 19 19 19 19 19 19 19 19 19 19 19 19 19 19 18 18 18 18 18 18 17 17 17 17 17 17
22 21 21 20 20 20 20 19 19 19 19 19 19 19 19 19 19 19 19 19 19 19 19 19 18 19 19 19 18 18 18 18 18 18 18 18 17 17 17 17 17 16 16
22 21 21 21 20 20 20 20 20 19 19 19 19 19 19 19 19 19 19 19 19 19 19 19 19 19 19 19 18 18 18 18 18 18 18 18 17 17 17 16 16 16 16
22 22 21 21 21 21 20 20 20 20 20 20 20 20 19 19 19 19 19 19 19 19 19 19 19 18 18 18 18 18 18 18 18 18 18 17 17 17 17 16 16 16 16
23 22 22 21 21 21 20 20 20 20 20 20 20 20 19 19 19 19 19 19 19 19 19 18 18 18 18 18 18 18 18 18 18 17 17 17 17 17 17 16 16 16 16
24 23 22 22 21 21 21 20 20 20 20 20 20 20 20 19 19 19 19 19 19 19 18 18 19 18 18 18 18 18 18 18 18 18 17 17 17 17 16 16 16 16 16
24 23 22 22 22 21 21 21 21 20 20 20 20 20 20 20 19 19 19 19 19 19 19 19 18 18 18 18 18 18 18 18 18 18 17 17 17 16 16 16 16 16 15
Wind_Speed
8 9 10 11 11 12 12 12 13 14 15 15 16 17 18 19 19 19 19 20 21 22 22 22 22 22 22 22 22 21 20 20 20 20 19 18 17 16 15 15 15 15 16
9 10 11 11 11 11 12 12 13 14 15 16 16 16 18 18 19 19 19 20 21 21 21 22 21 21 21 21 20 20 19 19 19 19 19 17 16 14 13 13 15 14 16
10 10 11 11 11 12 12 12 13 14 15 16 16 16 17 18 18 18 19 20 21 21 21 21 21 20 20 20 19 18 18 18 18 19 18 15 15 15 15 16 18 16 15
10 11 12 12 12 12 12 12 13 14 15 15 16 16 17 17 17 18 19 20 20 20 20 20 20 20 19 18 18 16 16 15 16 15 13 14 14 16 16 17 16 15 15
12 14 13 13 12 12 12 12 13 13 14 15 15 15 16 17 17 18 19 19 19 19 19 19 19 18 17 16 15 14 12 12 12 10 12 15 15 16 16 16 15 15 14
13 14 14 13 13 12 12 12 13 13 14 14 14 15 16 16 16 17 18 18 18 18 18 18 18 17 15 14 13 11 9 8 8 8 12 15 15 15 15 14 14 14 13
13 14 14 13 12 12 12 12 12 12 13 13 13 14 15 15 15 16 17 17 17 17 17 17 16 15 14 12 10 8 6 4 5 8 12 15 15 15 14 13 13 12 12
13 14 14 13 12 12 12 12 12 12 12 12 13 14 14 14 14 15 16 16 16 16 15 15 14 13 11 9 7 5 3 1 6 12 14 15 16 15 14 13 12 12 11
12 12 12 12 12 12 12 11 11 11 11 12 13 14 14 14 14 15 14 14 14 14 14 13 12 11 10 7 4 2 2 1 3 10 13 14 16 15 13 12 11 11 10
10 10 10 11 11 10 11 11 11 10 10 12 12 13 14 14 14 14 14 13 13 13 12 12 11 10 8 6 4 4 3 3 3 10 12 13 16 15 14 12 11 10 10
8 8 8 9 9 9 11 11 10 10 9 10 9 11 12 10 12 12 13 13 12 12 11 10 9 8 7 6 6 6 5 3 6 10 12 15 16 14 13 12 11 10 9
7 7 7 8 7 6 8 9 8 8 8 5 7 9 7 7 10 12 13 13 12 11 10 10 9 8 7 6 7 7 5 2 6 9 12 17 15 14 12 11 10 9 9
6 6 8 9 6 6 5 5 4 5 6 5 5 6 7 7 8 9 8 10 10 10 8 9 8 7 6 4 3 4 4 1 6 10 13 16 15 13 12 11 10 9 8
6 7 8 9 7 6 5 3 3 4 4 4 6 5 5 2 3 4 3 6 6 6 5 5 4 4 3 3 2 2 1 4 7 10 12 15 14 13 12 11 10 9 8
6 7 9 8 7 5 5 3 3 4 4 5 5 5 4 3 3 3 2 1 2 4 4 2 2 2 1 2 2 1 2 4 7 9 10 13 14 13 12 11 10 9 9
6 7 8 7 7 5 3 2 2 3 4 4 5 6 4 3 3 2 2 1 1 2 3 2 2 2 2 1 0 1 1 3 6 9 10 11 12 12 11 10 10 9 9
7 7 6 6 7 5 4 1 1 2 4 4 4 6 5 3 3 2 1 2 1 2 2 2 1 1 1 1 1 0 1 1 3 6 8 8 9 10 10 10 10 10 10
8 7 5 5 7 6 4 1 1 2 3 3 4 6 6 4 3 2 1 1 2 2 2 1 1 1 0 1 1 1 1 1 2 4 6 7 8 8 9 9 9 9 9
8 8 6 5 7 6 4 3 1 2 2 1 3 3 5 6 5 3 2 1 2 1 1 1 1 0 0 1 1 2 1 2 2 2 3 4 6 8 8 9 10 9 8
9 8 7 6 6 5 5 3 1 2 2 1 2 2 3 3 4 3 2 3 1 1 1 1 1 1 1 2 2 1 1 2 2 2 2 2 3 5 7 8 9 8 8
10 9 7 6 6 4 3 3 3 3 2 2 2 3 3 2 2 1 0 2 1 1 1 1 1 1 2 1 0 1 0 1 2 2 2 2 2 2 4 6 6 6 6
11 10 8 7 7 6 4 3 3 3 2 3 2 4 3 2 1 2 2 1 1 1 1 1 1 1 1 1 1 1 0 0 0 1 3 2 2 2 3 5 5 5 5
12 11 10 8 7 6 6 4 2 2 1 2 3 3 3 2 2 0 2 0 0 1 1 2 1 2 1 1 1 1 1 1 1 1 1 2 2 2 2 3 4 5 4
13 12 10 9 8 7 6 5 4 3 3 2 2 3 3 2 2 2 2 1 0 1 1 1 2 1 1 2 1 2 2 1 1 1 1 2 2 2 1 1 3 5 5
14 13 11 10 9 8 6 5 4 4 3 2 3 4 3 3 2 2 2 1 1 0 1 1 1 0 1 2 2 1 2 2 2 2 2 2 2 2 2 2 2 4 5
14 14 14 12 10 9 8 7 6 4 3 2 3 3 3 3 3 3 3 2 1 0 1 0 0 1 1 2 2 2 1 1 1 1 1 2 2 1 2 2 2 3 6
Wind_Direction
74 75 64 59 57 55 55 57 58 56 60 70 80 85 87 90 94 96 98 101 105 107 107 107 108 109 109 110 112 113 112 110 111 111 112 112 113 114 118 121 116 110 115
91 84 74 67 63 62 62 63 64 64 66 77 84 86 88 92 95 95 96 100 104 106 107 108 108 110 111 112 113 114 114 114 116 116 115 111 109 111 114 113 109 115 118
95 94 82 71 69 69 67 69 70 70 72 81 89 90 91 93 96 97 97 100 104 105 106 107 108 110 111 112 113 116 119 121 124 126 123 116 109 105 103 103 110 116 118
93 88 84 79 75 73 72 71 74 75 76 83 90 92 93 94 97 99 100 102 104 106 107 108 109 111 112 114 116 120 125 129 135 138 126 121 113 107 106 109 114 117 118
91 92 91 85 81 79 79 77 77 79 79 83 91 95 96 96 98 100 102 104 105 106 107 108 110 111 113 116 119 123 127 133 141 135 110 107 106 114 113 113 116 117 119
101 97 95 91 87 85 84 81 80 81 83 84 91 96 98 99 101 102 103 104 105 106 107 108 110 112 113 116 120 123 127 137 141 126 114 112 115 120 118 117 118 120 121
102 101 100 98 94 91 88 83 84 87 89 90 94 100 102 103 103 105 105 105 106 106 107 108 110 113 114 117 121 126 131 147 144 117 108 110 119 125 124 124 124 123 124
106 105 108 108 103 96 93 88 89 93 93 96 100 106 106 106 106 107 108 108 108 109 110 112 115 117 119 124 133 139 147 136 121 116 113 115 127 128 129 131 131 129 127
107 112 121 118 110 105 100 95 99 101 102 107 111 116 116 116 112 112 113 113 114 115 115 118 121 125 128 135 151 181 216 293 93 119 119 124 134 133 134 137 136 135 133
107 113 119 124 128 126 114 111 114 114 114 118 122 127 129 127 125 125 121 119 120 122 124 126 131 136 144 159 185 215 244 278 148 114 114 130 140 140 140 141 142 145 147
97 101 112 113 127 128 120 122 130 126 127 133 136 143 148 145 136 131 123 129 131 133 137 140 144 152 163 185 205 223 253 233 113 113 117 137 146 145 145 147 150 154 156
96 100 96 91 88 103 112 131 143 131 136 146 137 149 160 134 124 124 136 142 145 147 152 161 166 176 192 200 208 222 239 199 123 115 128 146 149 150 152 154 158 163 165
108 94 94 91 83 86 92 120 126 121 132 135 113 120 121 122 130 134 148 154 161 162 170 166 183 200 197 197 198 201 208 130 108 115 136 150 153 156 157 161 167 173 177
108 97 90 91 82 62 65 86 109 112 121 118 122 124 115 118 120 129 142 154 162 163 167 172 191 186 181 192 201 202 164 107 107 117 146 154 157 160 163 168 175 182 188
109 104 90 91 83 70 57 33 81 85 102 110 113 99 110 115 101 100 97 119 152 146 157 162 154 152 167 227 230 178 86 101 114 123 139 160 162 166 168 171 179 184 190
125 113 108 110 107 98 90 40 47 97 100 105 112 115 102 100 103 109 136 119 107 139 154 171 181 180 185 177 29 50 64 91 119 132 144 162 170 173 175 181 186 192 197
133 122 122 126 119 123 122 118 111 108 117 111 115 124 123 120 130 143 170 158 186 169 147 170 197 173 190 155 144 147 119 90 113 136 147 155 166 178 184 191 195 197 204
144 133 141 137 127 131 125 104 52 74 101 125 134 141 146 159 151 163 166 171 198 180 159 175 199 196 107 131 139 176 103 118 138 148 152 163 165 172 181 191 193 197 203
140 137 144 125 128 137 142 143 130 85 83 107 129 136 153 162 158 180 180 170 216 169 147 210 100 74 167 161 196 183 174 153 158 168 150 167 169 164 167 182 183 183 189
144 143 149 143 137 144 148 155 152 126 128 134 122 124 137 159 162 189 183 176 211 152 131 91 97 234 202 222 247 138 160 164 160 162 176 145 138 157 163 163 176 186 191
150 151 155 154 149 157 159 159 162 155 173 167 164 140 144 176 160 173 58 139 210 150 148 175 172 206 209 185 124 37 345 159 163 164 154 134 124 135 142 146 159 169 174
158 157 157 165 161 167 165 165 171 168 177 164 148 133 151 161 180 164 169 212 165 169 194 192 159 231 237 175 164 181 234 169 224 159 145 153 152 135 128 140 142 149 154
164 166 172 170 165 172 170 174 182 160 191 160 151 144 153 165 166 114 132 239 300 238 163 197 218 233 241 237 215 202 216 210 169 166 169 143 135 124 128 125 131 139 153
168 170 165 166 167 171 176 183 191 177 183 183 164 149 159 174 167 162 150 166 99 327 97 213 132 271 260 267 250 227 228 196 199 181 190 149 151 154 151 159 123 128 138
172 170 167 166 169 170 182 187 191 198 195 186 161 146 161 169 171 154 154 146 126 315 60 40 24 328 288 302 303 290 262 230 206 203 203 182 177 166 164 153 127 120 121
173 170 169 166 170 173 181 188 191 207 204 205 181 168 182 175 169 174 166 147 147 182 123 81 295 266 332 329 313 310 304 282 246 216 216 186 167 158 140 129 125 117 117
Height
1500 1498 1496 1495 1494 1492 1491 1489 1487 1484 1479 1478 1480 1483 1485 1486 1487 1489 1491 1494 1496 1499 1502 1504 1507 1510 1512 1515 1518 1521 1523 1525 1528 1530 1532 1535 1536 1538 1540 1542 1543 1544 1545
1500 1499 1498 1497 1495 1494 1493 1492 1490 1488 1486 1485 1486 1488 1489 1491 1492 1494 1496 1498 1500 1503 1506 1508 1511 1513 1516 1518 1521 1524 1526 1528 1531 1533 1535 1537 1539 1540 1541 1543 1545 1546 1547
1501 1500 1499 1498 1497 1496 1495 1494 1494 1492 1491 1491 1492 1493 1494 1495 1497 1499 1500 1502 1504 1507 1510 1512 1515 1517 1519 1522 1524 1527 1529 1531 1534 1536 1538 1539 1541 1542 1543 1545 1547 1548 1549
1503 1502 1501 1500 1499 1498 1498 1497 1497 1496 1495 1495 1496 1497 1498 1500 1501 1503 1504 1506 1509 1511 1513 1516 1518 1520 1523 1525 1528 1530 1532 1534 1536 1539 1541 1542 1543 1545 1546 1547 1548 1549 1551
1504 1503 1502 1502 1501 1501 1500 1500 1499 1499 1499 1499 1500 1501 1502 1503 1505 1507 1508 1510 1512 1515 1517 1519 1521 1523 1526 1528 1530 1533 1535 1537 1539 1541 1543 1544 1545 1547 1548 1549 1550 1551 1552
1506 1505 1504 1504 1503 1503 1502 1502 1502 1502 1502 1502 1503 1504 1505 1507 1509 1511 1512 1514 1516 1518 1520 1522 1524 1527 1529 1531 1533 1535 1538 1540 1542 1544 1545 1546 1547 1548 1550 1551 1552 1553 1554
1508 1507 1506 1506 1505 1505 1505 1504 1504 1505 1505 1505 1506 1507 1508 1510 1512 1514 1515 1517 1519 1521 1524 1526 1528 1530 1532 1534 1536 1538 1540 1542 1544 1546 1547 1548 1549 1550 1551 1552 1553 1554 1555
1509 1509 1508 1508 1507 1507 1507 1507 1507 1507 1507 1508 1509 1510 1512 1513 1515 1517 1519 1521 1523 1525 1527 1529 1531 1533 1535 1537 1539 1541 1542 1544 1546 1547 1548 1549 1550 1551 1552 1553 1554 1556 1557
1511 1511 1510 1510 1510 1509 1509 1509 1509 1510 1510 1511 1512 1513 1515 1517 1518 1520 1522 1524 1526 1528 1530 1532 1533 1535 1537 1539 1541 1543 1544 1546 1547 1548 1549 1550 1551 1552 1553 1554 1555 1556 1557
1513 1513 1513 1513 1512 1511 1511 1510 1511 1512 1513 1514 1515 1517 1518 1520 1522 1523 1525 1527 1528 1530 1532 1534 1536 1538 1540 1542 1543 1545 1546 1548 1549 1549 1550 1550 1552 1553 1554 1554 1555 1557 1558
1515 1516 1516 1516 1515 1514 1513 1513 1514 1515 1516 1517 1518 1520 1521 1523 1525 1526 1528 1530 1531 1533 1535 1537 1539 1540 1542 1544 1545 1547 1548 1548 1549 1550 1550 1551 1552 1553 1554 1555 1555 1557 1558
1517 1517 1518 1518 1518 1517 1517 1516 1517 1518 1518 1520 1521 1523 1524 1526 1528 1529 1531 1532 1534 1535 1537 1539 1541 1542 1543 1545 1547 1548 1548 1549 1549 1550 1550 1551 1552 1553 1554 1555 1555 1556 1557
1518 1519 1519 1519 1519 1519 1519 1519 1520 1520 1521 1522 1523 1525 1527 1529 1530 1531 1533 1534 1536 1537 1539 1540 1542 1543 1545 1546 1547 1548 1549 1549 1549 1549 1549 1551 1552 1553 1553 1554 1555 1556 1557
1519 1520 1520 1520 1520 1520 1521 1521 1522 1522 1523 1524 1525 1527 1528 1530 1532 1533 1534 1535 1537 1538 1540 1541 1543 1545 1546 1547 1548 1549 1549 1549 1549 1549 1550 1551 1552 1552 1553 1553 1554 1555 1556
1520 1521 1521 1521 1521 1521 1522 1523 1524 1524 1525 1526 1527 1528 1530 1531 1533 1535 1536 1537 1539 1540 1541 1542 1544 1545 1546 1547 1548 1549 1549 1550 1549 1549 1550 1551 1551 1552 1552 1553 1553 1554 1555
1521 1522 1522 1523 1522 1523 1524 1524 1525 1526 1527 1528 1529 1530 1531 1532 1534 1535 1537 1538 1540 1541 1542 1543 1544 1545 1546 1546 1547 1548 1549 1549 1549 1549 1549 1550 1550 1550 1551 1551 1552 1553 1553
1522 1523 1523 1524 1524 1524 1525 1526 1527 1528 1529 1529 1530 1531 1532 1533 1535 1536 1538 1539 1540 1541 1542 1543 1544 1545 1545 1546 1546 1547 1548 1548 1548 1548 1549 1549 1549 1549 1549 1550 1550 1551 1551
1521 1523 1524 1525 1525 1525 1526 1527 1528 1529 1530 1531 1531 1532 1533 1534 1535 1536 1538 1539 1540 1541 1542 1543 1543 1544 1545 1545 1546 1546 1547 1547 1547 1548 1548 1548 1548 1548 1548 1548 1548 1549 1549
1521 1522 1524 1526 1526 1526 1527 1528 1529 1530 1531 1532 1533 1533 1534 1535 1536 1537 1538 1539 1540 1541 1542 1542 1543 1543 1544 1544 1545 1545 1546 1546 1546 1547 1547 1547 1547 1547 1547 1547 1547 1547 1547
1520 1522 1524 1525 1526 1527 1528 1529 1530 1531 1532 1533 1533 1534 1534 1535 1536 1537 1538 1539 1540 1541 1541 1542 1542 1543 1543 1543 1544 1544 1544 1544 1545 1545 1546 1546 1546 1546 1545 1545 1545 1545 1545
1519 1521 1523 1524 1526 1527 1528 1529 1530 1531 1532 1533 1534 1534 1534 1535 1536 1537 1538 1539 1539 1540 1541 1541 1541 1542 1542 1543 1543 1543 1543 1543 1544 1544 1544 1545 1545 1544 1544 1544 1544 1543 1543
1518 1520 1522 1523 1525 1526 1528 1530 1531 1532 1532 1533 1534 1534 1534 1535 1536 1537 1537 1538 1539 1539 1540 1540 1541 1541 1542 1542 1542 1542 1543 1544 1543 1543 1543 1543 1543 1543 1543 1543 1542 1542 1542
1516 1518 1520 1522 1524 1526 1528 1529 1531 1532 1532 1533 1534 1534 1534 1535 1536 1536 1537 1537 1538 1538 1539 1539 1539 1540 1540 1541 1541 1542 1542 1541 1542 1542 1542 1542 1542 1542 1542 1542 1541 1541 1540
1513 1516 1518 1520 1522 1524 1527 1528 1530 1531 1532 1533 1533 1534 1534 1535 1536 1536 1537 1537 1537 1537 1538 1538 1538 1538 1539 1539 1540 1540 1541 1541 1541 1541 1541 1541 1541 1541 1541 1541 1540 1540 1539
1511 1514 1516 1518 1521 1523 1525 1527 1528 1530 1531 1532 1533 1534 1534 1534 1535 1536 1536 1536 1536 1536 1537 1537 1537 1537 1537 1538 1538 1539 1539 1539 1539 1539 1539 1539 1539 1539 1539 1539 1539 1538 1538
1509 1512 1514 1516 1519 1521 1523 1525 1527 1528 1530 1531 1532 1533 1533 1534 1534 1535 1535 1535 1535 1535 1535 1535 1536 1536 1536 1536 1536 1537 1537 1537 1537 1537 1537 1537 1537 1537 1537 1537 1537 1537 1536